Time,TemperatureF,DewpointF,PressureIn,WindDirection,WindDirectionDegrees,WindSpeedMPH,WindSpeedGustMPH,Humidity,HourlyPrecipIn,Conditions,Clouds,dailyrainin,SoftwareType,DateUTC
2013-01-14 00:04:00,58.0,53.0,29.94,SW,235,1.0,5.0,82,0.04,,,0.04,,2013-01-14 05:04:00,
2013-01-14 00:12:00,58.0,53.0,29.94,SW,235,1.0,5.0,82,0.04,,,0.04,,2013-01-14 05:12:00,
2013-01-14 00:22:00,57.0,52.0,29.94,West,270,0.0,7.0,83,0.00,,,0.08,,2013-01-14 05:22:00,
2013-01-14 00:33:00,57.0,52.0,29.94,SW,225,5.0,9.0,83,0.02,,,0.10,,2013-01-14 05:33:00,
2013-01-14 00:42:00,57.0,52.0,29.94,SW,225,5.0,9.0,83,0.02,,,0.10,,2013-01-14 05:42:00,
2013-01-14 00:52:00,57.0,52.0,29.92,SW,225,1.0,14.0,84,0.02,,,0.12,,2013-01-14 05:52:00,
2013-01-14 01:03:00,57.0,52.0,29.91,West,270,0.0,1.0,84,0.00,,,0.12,,2013-01-14 06:03:00,
2013-01-14 01:12:00,57.0,52.0,29.91,West,270,0.0,1.0,84,0.00,,,0.12,,2013-01-14 06:12:00,
2013-01-14 01:22:00,56.0,51.0,29.91,WSW,248,1.0,3.0,84,0.04,,,0.12,,2013-01-14 06:22:00,
2013-01-14 01:33:00,56.0,51.0,29.92,SSW,202,0.0,0.0,84,0.02,,,0.12,,2013-01-14 06:33:00,
2013-01-14 01:43:00,56.0,51.0,29.92,SSW,202,0.0,0.0,84,0.02,,,0.12,,2013-01-14 06:43:00,
2013-01-14 01:52:00,56.0,52.0,29.92,SSW,202,1.0,5.0,86,0.00,,,0.12,,2013-01-14 06:52:00,
2013-01-14 02:02:00,56.0,52.0,29.93,SSW,202,3.0,9.0,85,0.00,,,0.12,,2013-01-14 07:02:00,
2013-01-14 02:12:00,56.0,52.0,29.93,SSW,202,3.0,9.0,85,0.00,,,0.12,,2013-01-14 07:12:00,
2013-01-14 02:22:00,56.0,52.0,29.93,SSW,202,3.0,8.0,85,0.00,,,0.12,,2013-01-14 07:22:00,
2013-01-14 02:33:00,56.0,52.0,29.94,SSW,205,4.0,7.0,86,0.02,,,0.14,,2013-01-14 07:33:00,
2013-01-14 02:42:00,56.0,52.0,29.94,SSW,205,4.0,7.0,86,0.02,,,0.14,,2013-01-14 07:42:00,
2013-01-14 02:52:00,56.0,52.0,29.94,SSW,204,3.0,9.0,87,0.02,,,0.14,,2013-01-14 07:52:00,
2013-01-14 03:02:00,57.0,53.0,29.95,SW,225,2.0,9.0,87,0.02,,,0.14,,2013-01-14 08:02:00,
2013-01-14 03:12:00,57.0,53.0,29.95,SW,225,2.0,9.0,87,0.02,,,0.14,,2013-01-14 08:12:00,
2013-01-14 03:22:00,57.0,53.0,29.95,SW,217,3.0,12.0,87,0.02,,,0.14,,2013-01-14 08:22:00,
2013-01-14 03:33:00,56.0,52.0,29.98,NW,317,9.0,13.0,87,0.02,,,0.16,,2013-01-14 08:33:00,
2013-01-14 03:42:00,56.0,52.0,29.98,NW,317,9.0,13.0,87,0.02,,,0.16,,2013-01-14 08:42:00,
2013-01-14 03:52:00,51.0,45.0,30.00,North,357,4.0,8.0,81,0.02,,,0.16,,2013-01-14 08:52:00,
2013-01-14 04:03:00,48.0,42.0,30.01,NW,313,5.0,9.0,81,0.02,,,0.16,,2013-01-14 09:03:00,
2013-01-14 04:12:00,48.0,42.0,30.01,NW,313,5.0,9.0,81,0.02,,,0.16,,2013-01-14 09:12:00,
2013-01-14 04:22:00,45.0,40.0,30.02,NNE,12,7.0,14.0,82,0.02,,,0.16,,2013-01-14 09:22:00,
2013-01-14 04:33:00,44.0,39.0,30.02,WNW,292,3.0,6.0,83,0.00,,,0.16,,2013-01-14 09:33:00,
2013-01-14 04:43:00,44.0,39.0,30.02,WNW,292,3.0,6.0,83,0.00,,,0.16,,2013-01-14 09:43:00,
2013-01-14 04:53:00,43.0,38.0,30.03,NW,313,1.0,6.0,84,0.00,,,0.16,,2013-01-14 09:53:00,
2013-01-14 05:02:00,43.0,39.0,30.03,West,271,1.0,14.0,85,0.00,,,0.16,,2013-01-14 10:02:00,
2013-01-14 05:12:00,43.0,39.0,30.03,West,271,1.0,14.0,85,0.00,,,0.16,,2013-01-14 10:12:00,
2013-01-14 05:23:00,43.0,39.0,30.03,WSW,248,0.0,0.0,85,0.00,,,0.16,,2013-01-14 10:23:00,
2013-01-14 05:32:00,43.0,39.0,30.04,WSW,248,0.0,0.0,85,0.02,,,0.18,,2013-01-14 10:32:00,
2013-01-14 05:42:00,43.0,39.0,30.04,WSW,248,0.0,0.0,85,0.02,,,0.18,,2013-01-14 10:42:00,
2013-01-14 05:52:00,43.0,39.0,30.05,WSW,248,0.0,0.0,86,0.02,,,0.18,,2013-01-14 10:52:00,
2013-01-14 06:02:00,43.0,39.0,30.07,SW,225,1.0,3.0,86,0.02,,,0.18,,2013-01-14 11:02:00,
2013-01-14 06:12:00,43.0,39.0,30.07,SW,225,1.0,3.0,86,0.02,,,0.18,,2013-01-14 11:12:00,
2013-01-14 06:22:00,42.0,38.0,30.08,SSW,202,1.0,3.0,86,0.02,,,0.18,,2013-01-14 11:22:00,
2013-01-14 06:33:00,42.0,38.0,30.09,WSW,248,0.0,6.0,86,0.00,,,0.18,,2013-01-14 11:33:00,
2013-01-14 06:43:00,42.0,38.0,30.09,WSW,248,0.0,6.0,86,0.00,,,0.18,,2013-01-14 11:43:00,
2013-01-14 06:53:00,42.0,38.0,30.10,West,281,2.0,7.0,87,0.00,,,0.18,,2013-01-14 11:53:00,
2013-01-14 07:03:00,41.0,37.0,30.12,WNW,288,0.0,1.0,87,0.00,,,0.18,,2013-01-14 12:03:00,
2013-01-14 07:12:00,41.0,37.0,30.12,WNW,288,0.0,1.0,87,0.00,,,0.18,,2013-01-14 12:12:00,
2013-01-14 07:23:00,41.0,37.0,30.12,WNW,292,0.0,0.0,87,0.00,,,0.18,,2013-01-14 12:23:00,
2013-01-14 07:33:00,41.0,37.0,30.13,WNW,292,0.0,0.0,87,0.00,,,0.18,,2013-01-14 12:33:00,
2013-01-14 07:43:00,41.0,37.0,30.13,WNW,292,0.0,0.0,87,0.00,,,0.18,,2013-01-14 12:43:00,
2013-01-14 07:53:00,40.0,36.0,30.13,WNW,292,0.0,0.0,87,0.00,,,0.18,,2013-01-14 12:53:00,
2013-01-14 08:03:00,40.0,36.0,30.14,NW,315,0.0,2.0,87,0.00,,,0.18,,2013-01-14 13:03:00,
2013-01-14 08:13:00,40.0,36.0,30.14,NW,315,0.0,2.0,87,0.00,,,0.18,,2013-01-14 13:13:00,
2013-01-14 08:23:00,40.0,36.0,30.15,NW,315,0.0,0.0,87,0.00,,,0.18,,2013-01-14 13:23:00,
2013-01-14 08:33:00,40.0,36.0,30.15,NW,315,0.0,0.0,87,0.00,,,0.18,,2013-01-14 13:33:00,
2013-01-14 08:43:00,40.0,36.0,30.15,NW,315,0.0,0.0,87,0.00,,,0.18,,2013-01-14 13:43:00,
2013-01-14 08:53:00,39.0,35.0,30.16,WNW,292,0.0,5.0,87,0.00,,,0.18,,2013-01-14 13:53:00,
2013-01-14 09:03:00,39.0,35.0,30.17,NNE,22,0.0,0.0,87,0.00,,,0.18,,2013-01-14 14:03:00,
2013-01-14 09:13:00,39.0,35.0,30.17,NNE,22,0.0,0.0,87,0.00,,,0.18,,2013-01-14 14:13:00,
2013-01-14 09:23:00,39.0,36.0,30.18,WNW,292,0.0,0.0,88,0.00,,,0.18,,2013-01-14 14:23:00,
2013-01-14 09:33:00,39.0,36.0,30.19,WNW,292,0.0,0.0,88,0.00,,,0.18,,2013-01-14 14:33:00,
2013-01-14 09:43:00,39.0,36.0,30.19,WNW,292,0.0,0.0,88,0.00,,,0.18,,2013-01-14 14:43:00,
2013-01-14 09:53:00,39.0,36.0,30.19,WNW,292,0.0,0.0,88,0.00,,,0.18,,2013-01-14 14:53:00,
2013-01-14 10:03:00,39.0,36.0,30.19,WNW,292,0.0,1.0,88,0.00,,,0.18,,2013-01-14 15:03:00,
2013-01-14 10:12:00,39.0,36.0,30.19,WNW,292,0.0,1.0,88,0.00,,,0.18,,2013-01-14 15:12:00,
2013-01-14 10:23:00,39.0,36.0,30.19,WNW,292,0.0,1.0,88,0.00,,,0.18,,2013-01-14 15:23:00,
2013-01-14 10:33:00,39.0,36.0,30.20,NW,319,0.0,3.0,88,0.00,,,0.18,,2013-01-14 15:33:00,
2013-01-14 10:43:00,39.0,36.0,30.20,NW,319,0.0,3.0,88,0.00,,,0.18,,2013-01-14 15:43:00,
2013-01-14 10:53:00,39.0,36.0,30.19,WNW,292,3.0,6.0,88,0.00,,,0.18,,2013-01-14 15:53:00,
2013-01-14 11:03:00,38.0,35.0,30.20,WNW,292,3.0,5.0,88,0.00,,,0.18,,2013-01-14 16:03:00,
2013-01-14 11:12:00,38.0,35.0,30.20,WNW,292,3.0,5.0,88,0.00,,,0.18,,2013-01-14 16:12:00,
2013-01-14 11:23:00,38.0,35.0,30.20,NNW,338,2.0,7.0,88,0.00,,,0.18,,2013-01-14 16:23:00,
2013-01-14 11:33:00,38.0,34.0,30.18,NW,315,0.0,1.0,87,0.00,,,0.18,,2013-01-14 16:33:00,
2013-01-14 11:43:00,38.0,34.0,30.18,NW,315,0.0,1.0,87,0.00,,,0.18,,2013-01-14 16:43:00,
2013-01-14 11:53:00,38.0,34.0,30.18,North,0,2.0,7.0,87,0.00,,,0.18,,2013-01-14 16:53:00,
2013-01-14 12:03:00,38.0,34.0,30.17,WNW,292,2.0,7.0,87,0.00,,,0.18,,2013-01-14 17:03:00,
2013-01-14 12:12:00,38.0,34.0,30.17,WNW,292,2.0,7.0,87,0.00,,,0.18,,2013-01-14 17:12:00,
2013-01-14 12:23:00,38.0,34.0,30.17,WNW,292,1.0,3.0,86,0.00,,,0.18,,2013-01-14 17:23:00,
2013-01-14 12:33:00,38.0,34.0,30.16,WNW,292,1.0,3.0,86,0.00,,,0.18,,2013-01-14 17:33:00,
2013-01-14 12:43:00,38.0,34.0,30.16,WNW,292,1.0,3.0,86,0.00,,,0.18,,2013-01-14 17:43:00,
2013-01-14 12:53:00,38.0,34.0,30.17,WNW,292,2.0,5.0,85,0.00,,,0.18,,2013-01-14 17:53:00,
2013-01-14 13:03:00,38.0,34.0,30.16,NW,315,3.0,5.0,85,0.00,,,0.18,,2013-01-14 18:03:00,
2013-01-14 13:13:00,38.0,34.0,30.16,NW,315,3.0,5.0,85,0.00,,,0.18,,2013-01-14 18:13:00,
2013-01-14 13:23:00,39.0,35.0,30.15,NNW,338,2.0,6.0,84,0.00,,,0.18,,2013-01-14 18:23:00,
2013-01-14 13:33:00,39.0,34.0,30.15,West,270,2.0,5.0,82,0.00,,,0.18,,2013-01-14 18:33:00,
2013-01-14 13:43:00,39.0,34.0,30.15,West,270,2.0,5.0,82,0.00,,,0.18,,2013-01-14 18:43:00,
2013-01-14 13:52:00,39.0,33.0,30.15,NNW,338,2.0,7.0,80,0.00,,,0.18,,2013-01-14 18:52:00,
2013-01-14 14:03:00,39.0,33.0,30.15,North,0,2.0,7.0,79,0.00,,,0.18,,2013-01-14 19:03:00,
2013-01-14 14:13:00,39.0,33.0,30.15,North,0,2.0,7.0,79,0.00,,,0.18,,2013-01-14 19:13:00,
2013-01-14 14:22:00,39.0,33.0,30.14,NNW,330,1.0,6.0,78,0.00,,,0.18,,2013-01-14 19:22:00,
2013-01-14 14:33:00,39.0,32.0,30.14,NNE,22,3.0,5.0,77,0.00,,,0.18,,2013-01-14 19:33:00,
2013-01-14 14:43:00,39.0,32.0,30.14,NNE,22,3.0,5.0,77,0.00,,,0.18,,2013-01-14 19:43:00,
2013-01-14 14:52:00,39.0,32.0,30.12,NW,315,0.0,2.0,76,0.00,,,0.18,,2013-01-14 19:52:00,
2013-01-14 15:03:00,39.0,32.0,30.12,NW,315,0.0,0.0,77,0.00,,,0.18,,2013-01-14 20:03:00,
2013-01-14 15:13:00,39.0,32.0,30.12,NW,315,0.0,0.0,77,0.00,,,0.18,,2013-01-14 20:13:00,
2013-01-14 15:22:00,39.0,32.0,30.12,NW,315,0.0,1.0,77,0.00,,,0.18,,2013-01-14 20:22:00,
2013-01-14 15:33:00,39.0,32.0,30.12,NW,315,0.0,1.0,76,0.00,,,0.18,,2013-01-14 20:33:00,
2013-01-14 15:43:00,39.0,32.0,30.12,NW,315,0.0,1.0,76,0.00,,,0.18,,2013-01-14 20:43:00,
2013-01-14 15:53:00,39.0,32.0,30.14,NW,315,1.0,3.0,75,0.00,,,0.18,,2013-01-14 20:53:00,
2013-01-14 16:03:00,38.0,31.0,30.15,NNE,22,0.0,2.0,75,0.00,,,0.18,,2013-01-14 21:03:00,
2013-01-14 16:13:00,38.0,31.0,30.15,NNE,22,0.0,2.0,75,0.00,,,0.18,,2013-01-14 21:13:00,
2013-01-14 16:23:00,38.0,30.0,30.16,NNW,338,2.0,6.0,74,0.00,,,0.18,,2013-01-14 21:23:00,
2013-01-14 16:33:00,38.0,30.0,30.15,North,0,1.0,7.0,74,0.00,,,0.18,,2013-01-14 21:33:00,
2013-01-14 16:43:00,38.0,30.0,30.15,North,0,1.0,7.0,74,0.00,,,0.18,,2013-01-14 21:43:00,
2013-01-14 16:53:00,38.0,30.0,30.17,North,0,0.0,3.0,73,0.00,,,0.18,,2013-01-14 21:53:00,
2013-01-14 17:03:00,37.0,29.0,30.18,NNE,18,3.0,6.0,73,0.00,,,0.18,,2013-01-14 22:03:00,
2013-01-14 17:12:00,37.0,29.0,30.18,NNE,18,3.0,6.0,73,0.00,,,0.18,,2013-01-14 22:12:00,
2013-01-14 17:23:00,37.0,29.0,30.19,NNW,345,1.0,5.0,72,0.00,,,0.18,,2013-01-14 22:23:00,
2013-01-14 17:33:00,37.0,29.0,30.19,North,357,1.0,5.0,72,0.00,,,0.18,,2013-01-14 22:33:00,
2013-01-14 17:43:00,37.0,29.0,30.19,North,357,1.0,5.0,72,0.00,,,0.18,,2013-01-14 22:43:00,
2013-01-14 17:52:00,36.0,28.0,30.22,NNE,22,0.0,6.0,71,0.00,,,0.18,,2013-01-14 22:52:00,
2013-01-14 18:03:00,36.0,28.0,30.23,North,0,0.0,0.0,71,0.00,,,0.18,,2013-01-14 23:03:00,
2013-01-14 18:12:00,36.0,28.0,30.23,North,0,0.0,0.0,71,0.00,,,0.18,,2013-01-14 23:12:00,
2013-01-14 18:23:00,36.0,28.0,30.23,North,0,0.0,0.0,71,0.00,,,0.18,,2013-01-14 23:23:00,
2013-01-14 18:33:00,36.0,28.0,30.23,North,0,0.0,0.0,71,0.00,,,0.18,,2013-01-14 23:33:00,
2013-01-14 18:43:00,36.0,28.0,30.23,North,0,0.0,0.0,71,0.00,,,0.18,,2013-01-14 23:43:00,
2013-01-14 18:53:00,35.0,27.0,30.22,North,0,0.0,3.0,71,0.00,,,0.18,,2013-01-14 23:53:00,
2013-01-14 19:03:00,35.0,26.0,30.22,North,358,1.0,2.0,70,0.00,,,0.18,,2013-01-15 00:03:00,
2013-01-14 19:12:00,35.0,26.0,30.22,North,358,1.0,2.0,70,0.00,,,0.18,,2013-01-15 00:12:00,
2013-01-14 19:23:00,35.0,26.0,30.23,NNE,22,0.0,0.0,70,0.00,,,0.18,,2013-01-15 00:23:00,
2013-01-14 19:33:00,35.0,26.0,30.24,NNE,22,0.0,2.0,70,0.00,,,0.18,,2013-01-15 00:33:00,
2013-01-14 19:43:00,35.0,26.0,30.24,NNE,22,0.0,2.0,70,0.00,,,0.18,,2013-01-15 00:43:00,
2013-01-14 19:52:00,35.0,26.0,30.24,NNW,338,0.0,1.0,70,0.00,,,0.18,,2013-01-15 00:52:00,
2013-01-14 20:02:00,35.0,26.0,30.24,North,0,0.0,3.0,70,0.00,,,0.18,,2013-01-15 01:02:00,
2013-01-14 20:12:00,35.0,26.0,30.24,North,0,0.0,2.0,70,0.00,,,0.18,,2013-01-15 01:12:00,
2013-01-14 20:22:00,35.0,26.0,30.24,North,0,0.0,2.0,70,0.00,,,0.18,,2013-01-15 01:22:00,
2013-01-14 20:32:00,34.0,25.0,30.24,North,0,1.0,2.0,70,0.00,,,0.18,,2013-01-15 01:32:00,
2013-01-14 20:43:00,34.0,25.0,30.24,North,0,1.0,2.0,70,0.00,,,0.18,,2013-01-15 01:43:00,
2013-01-14 20:52:00,34.0,25.0,30.25,North,0,0.0,0.0,70,0.00,,,0.18,,2013-01-15 01:52:00,
2013-01-14 21:02:00,34.0,25.0,30.25,North,0,0.0,0.0,70,0.00,,,0.18,,2013-01-15 02:02:00,
2013-01-14 21:12:00,34.0,25.0,30.25,North,0,0.0,0.0,70,0.00,,,0.18,,2013-01-15 02:12:00,
2013-01-14 21:22:00,34.0,26.0,30.24,NNE,22,0.0,1.0,71,0.00,,,0.18,,2013-01-15 02:22:00,
2013-01-14 21:32:00,34.0,26.0,30.23,NNE,22,0.0,0.0,71,0.00,,,0.18,,2013-01-15 02:32:00,
2013-01-14 21:42:00,34.0,26.0,30.23,NNE,22,0.0,0.0,71,0.00,,,0.18,,2013-01-15 02:42:00,
2013-01-14 21:52:00,33.0,25.0,30.21,NNE,22,0.0,0.0,71,0.00,,,0.18,,2013-01-15 02:52:00,
2013-01-14 22:03:00,33.0,25.0,30.18,North,0,0.0,0.0,71,0.00,,,0.18,,2013-01-15 03:03:00,
2013-01-14 22:12:00,33.0,25.0,30.18,North,0,0.0,0.0,71,0.00,,,0.18,,2013-01-15 03:12:00,
2013-01-14 22:22:00,33.0,25.0,30.16,North,0,0.0,0.0,72,0.00,,,0.18,,2013-01-15 03:22:00,
2013-01-14 22:33:00,33.0,26.0,30.18,North,0,0.0,0.0,74,0.00,,,0.18,,2013-01-15 03:33:00,
2013-01-14 22:42:00,33.0,26.0,30.18,North,0,0.0,0.0,74,0.00,,,0.18,,2013-01-15 03:42:00,
2013-01-14 22:52:00,33.0,26.0,30.18,North,0,0.0,0.0,75,0.00,,,0.18,,2013-01-15 03:52:00,
2013-01-14 23:02:00,33.0,26.0,30.18,North,0,0.0,0.0,76,0.00,,,0.18,,2013-01-15 04:02:00,
2013-01-14 23:12:00,33.0,26.0,30.18,North,0,0.0,0.0,76,0.00,,,0.18,,2013-01-15 04:12:00,
2013-01-14 23:22:00,33.0,26.0,30.18,North,0,0.0,0.0,76,0.00,,,0.18,,2013-01-15 04:22:00,
2013-01-14 23:32:00,32.0,26.0,30.16,North,0,0.0,0.0,77,0.02,,,0.20,,2013-01-15 04:32:00,
2013-01-14 23:42:00,32.0,26.0,30.16,North,0,0.0,0.0,77,0.02,,,0.20,,2013-01-15 04:42:00,
2013-01-14 23:52:00,32.0,26.0,30.16,North,0,0.0,0.0,78,0.02,,,0.18,,2013-01-15 04:52:00,